Wind_Speed
10 10 11 11 12 13 13 14 15 15 15 15 15 15 15 16 16 17 17 18 18 19 21 22 25 27 30 33 36 38 39 40 41 42 42 42 42 41 40 39 37 36 35 34 32 30 28 26 25 23 23 22 18 16 14 13 10 6 8 7 5 3 3 5 6 4 5 6 7 7 8 11 13 15 17 21 24 26 28 28 32 35 37 34 31 30 28 26
11 11 12 13 13 14 15 15 16 17 17 17 17 16 16 16 17 17 18 18 19 19 20 21 23 25 28 31 34 36 38 40 41 42 42 42 42 42 42 41 39 37 36 36 34 32 30 28 27 24 24 24 22 22 18 12 10 8 7 8 6 2 2 5 6 3 3 5 6 6 7 9 12 13 16 19 22 25 27 27 30 33 36 35 31 30 29 26
12 13 13 14 15 16 16 17 17 18 18 19 19 18 18 17 18 18 19 19 19 20 20 21 22 24 26 29 31 34 36 39 40 42 42 42 43 43 43 42 41 39 38 37 36 34 32 30 29 26 26 26 25 24 19 14 13 12 10 10 6 1 1 5 6 2 2 4 5 6 7 8 10 12 14 17 20 22 25 26 28 31 35 35 32 29 29 27
14 14 15 16 16 17 17 18 18 19 19 20 20 20 20 19 19 19 20 20 20 21 21 21 22 23 25 27 29 32 34 37 39 41 42 43 43 43 43 43 42 41 40 39 38 37 35 33 31 29 28 27 26 24 21 18 14 14 12 10 8 5 2 3 3 2 3 3 4 6 7 8 9 11 13 15 18 20 23 25 26 29 33 35 34 30 28 28
15 16 17 18 18 19 19 19 19 20 20 21 21 22 22 21 21 21 21 21 22 22 22 23 23 24 25 26 27 29 32 35 37 39 41 42 43 43 44 44 44 44 42 41 40 38 37 35 33 31 29 28 28 27 25 22 15 14 14 12 10 9 6 4 3 3 2 3 4 6 7 8 8 10 11 13 16 18 21 24 25 27 31 34 34 31 28 27
18 19 20 20 20 21 21 21 21 21 21 21 22 23 23 23 23 22 22 22 23 23 24 24 24 24 25 25 26 28 31 33 35 38 40 42 43 44 44 45 46 45 44 43 41 40 39 37 35 33 32 31 31 29 26 23 19 17 15 13 11 9 9 6 4 4 3 3 5 5 6 7 8 9 10 12 14 16 19 22 24 26 28 32 34 32 29 27
21 22 22 22 23 23 23 23 22 22 22 21 22 22 23 24 24 24 24 24 24 24 25 25 25 26 25 26 26 27 29 31 33 37 39 41 43 44 45 46 47 47 46 45 43 42 40 39 37 35 34 34 32 30 28 25 23 21 17 14 13 11 9 6 5 5 4 5 6 5 6 6 8 9 9 11 13 15 17 20 22 24 26 30 32 32 30 27
23 24 24 24 24 24 24 24 23 23 22 22 22 22 23 24 25 25 25 25 25 25 26 27 27 27 27 27 27 28 29 29 32 35 37 40 42 43 45 46 47 47 47 47 45 43 42 41 40 38 37 36 33 31 29 27 25 24 22 17 15 13 10 8 8 6 4 6 7 6 6 7 7 8 9 9 11 13 15 17 21 23 24 27 30 32 31 28
25 25 25 25 25 25 25 25 24 23 23 22 22 22 23 24 25 26 26 26 26 26 27 27 28 29 29 29 28 30 29 29 31 33 35 38 41 43 45 46 47 48 48 48 47 45 44 43 42 41 39 38 35 32 30 28 27 25 24 20 16 16 14 12 12 8 6 8 9 8 7 7 7 8 9 9 9 11 13 15 18 21 22 24 28 30 31 29
26 26 25 25 25 25 25 25 24 24 23 22 22 22 22 23 24 25 26 26 27 27 27 28 29 30 31 31 31 31 29 29 31 32 34 37 39 41 43 45 47 48 49 48 48 47 46 44 44 43 42 40 37 34 32 30 28 24 22 20 17 16 14 14 15 11 10 11 10 10 9 8 7 8 9 8 9 10 12 14 16 19 21 22 25 28 29 30
26 26 26 25 25 24 24 24 24 24 23 23 22 22 22 23 24 25 26 27 27 27 28 28 29 31 32 32 33 32 30 30 32 31 32 35 37 39 42 44 46 48 49 49 49 48 47 46 45 44 43 42 39 36 34 32 30 25 23 22 18 15 13 15 18 15 14 14 13 12 12 9 7 7 8 8 8 9 10 12 14 16 19 20 22 26 28 28
27 27 27 26 25 24 24 24 24 24 23 23 22 22 22 22 23 24 25 26 27 28 28 29 29 31 32 33 34 34 32 32 32 32 32 33 35 37 39 42 44 47 48 49 49 49 49 48 47 46 44 43 41 39 37 35 32 28 25 24 20 17 17 19 21 18 16 17 16 15 15 11 8 7 7 8 7 8 8 10 12 14 16 19 20 23 26 27
28 28 28 27 26 25 24 24 24 23 23 23 23 22 22 22 23 24 25 26 27 28 28 29 30 31 32 33 35 35 35 34 34 34 34 34 34 36 38 40 42 45 47 49 49 49 49 49 48 47 46 45 43 42 41 38 35 31 27 26 23 20 20 23 23 20 18 18 17 16 16 13 9 7 6 7 7 7 8 8 10 12 14 17 18 20 23 25
29 29 29 28 27 26 25 25 24 23 23 23 22 22 22 22 22 23 25 26 27 28 29 30 30 31 32 33 35 36 36 36 36 35 35 35 35 35 37 39 40 43 46 48 49 49 50 50 50 49 48 46 45 44 43 41 39 37 31 29 28 23 23 26 26 23 21 19 18 18 16 13 11 8 7 6 6 7 7 7 8 10 12 14 16 17 20 23
31 30 30 29 28 27 26 25 24 24 23 23 22 22 22 22 22 23 24 25 26 28 29 30 31 31 32 33 34 36 37 37 37 37 37 36 36 36 36 38 39 41 44 47 48 49 50 50 50 50 49 48 47 46 45 44 42 41 35 31 31 29 27 28 27 26 24 22 22 21 18 14 13 11 8 7 7 7 7 7 7 8 9 12 14 15 17 20
32 32 31 30 29 27 26 26 25 24 23 23 22 22 22 22 22 22 23 25 26 27 29 30 31 32 32 34 34 35 37 38 39 39 39 38 37 37 37 37 38 40 43 46 48 48 49 50 51 51 51 50 49 48 47 46 44 43 39 34 33 33 30 28 27 27 26 25 25 23 20 18 16 14 11 10 8 8 8 6 6 7 7 9 11 13 15 17
33 33 32 31 30 28 27 26 25 24 24 23 23 22 22 22 21 22 23 24 25 26 28 30 31 32 33 34 34 35 37 38 39 40 40 40 39 39 38 38 38 39 41 44 46 48 48 50 51 51 52 52 51 50 48 48 47 45 43 37 34 34 32 29 28 28 27 27 26 24 23 21 19 18 14 12 11 9 8 7 6 6 6 7 9 11 12 14
34 34 33 32 31 29 28 27 26 25 24 24 23 23 23 22 21 22 22 23 24 25 27 29 31 32 34 35 35 36 37 38 39 40 41 41 41 40 40 39 39 39 40 42 44 46 47 49 50 51 53 53 53 52 50 50 49 47 45 40 36 36 33 31 30 28 27 28 27 26 24 22 21 21 17 14 13 12 10 8 6 6 5 6 7 9 10 11
35 35 34 33 32 31 29 27 26 25 25 24 24 24 23 23 22 22 21 22 23 24 26 28 30 32 34 35 36 36 37 38 39 40 42 42 42 42 42 41 40 40 40 41 43 44 45 47 49 51 53 54 54 53 52 52 50 48 48 44 39 38 34 32 31 29 27 27 26 24 24 22 22 21 18 16 17 15 12 10 6 5 5 5 5 6 8 9
36 35 35 34 33 32 30 28 27 26 25 25 25 24 24 23 23 22 21 21 22 23 24 26 28 30 33 34 36 37 37 38 39 40 41 42 43 43 43 42 42 41 40 40 41 43 44 45 48 51 53 54 54 54 54 53 52 50 49 47 43 39 35 33 31 29 27 26 24 24 24 23 22 21 19 19 20 18 15 12 9 6 5 5 5 4 5 7
37 36 36 35 34 33 31 29 28 26 26 25 25 25 25 24 24 23 22 21 22 22 23 25 27 29 31 33 35 37 37 38 39 40 41 42 43 43 44 44 43 42 41 41 41 42 43 45 47 51 53 54 54 55 56 55 54 52 51 49 46 42 38 36 31 28 28 27 27 27 26 24 23 23 22 23 23 20 17 15 12 9 7 7 6 4 3 5
37 37 36 36 35 34 32 31 29 28 27 26 25 25 25 25 24 24 22 22 21 21 22 23 25 28 30 32 34 36 37 38 39 40 41 42 43 43 44 44 44 43 43 43 42 42 44 45 47 51 52 52 54 55 55 55 55 55 52 50 49 46 42 39 33 28 29 29 29 28 27 26 25 24 24 25 24 22 20 16 14 12 10 9 8 6 4 3
38 38 37 36 35 34 33 32 30 29 28 27 26 26 26 25 25 24 23 22 22 21 21 23 24 26 28 30 32 35 36 38 39 40 41 41 42 43 44 44 45 45 44 44 43 44 45 45 46 48 49 50 54 54 54 55 55 56 55 51 49 48 46 43 38 32 30 29 28 26 24 25 26 25 25 26 24 24 24 18 16 15 13 11 9 8 7 5
39 38 38 37 36 35 33 32 31 30 29 28 27 27 27 26 25 24 23 22 22 21 21 22 23 25 27 29 31 33 35 37 38 40 41 41 42 43 44 44 45 45 45 45 44 45 46 44 44 44 44 48 52 53 54 56 56 56 57 54 51 50 49 47 44 40 36 33 32 30 26 27 29 27 27 26 23 25 26 20 18 18 15 13 11 10 8 7
39 39 38 37 36 35 34 33 31 31 30 29 28 28 28 27 25 24 23 22 22 21 20 21 22 24 26 27 29 31 33 35 37 39 40 41 42 42 43 44 45 45 45 46 46 47 47 45 43 42 42 46 51 53 54 56 57 58 58 57 55 53 52 51 47 43 40 38 37 36 35 35 34 31 31 30 28 28 26 21 19 19 18 15 13 13 11 9
40 39 39 38 37 36 34 33 32 31 30 29 29 29 28 28 26 24 23 22 21 20 19 20 21 23 24 26 28 29 31 33 35 37 38 40 41 42 43 43 44 45 46 47 47 48 47 44 43 43 45 49 52 54 55 57 58 58 58 58 57 56 54 53 51 45 43 42 38 38 40 38 36 36 36 34 33 32 27 24 22 21 20 18 15 15 14 12
41 40 39 38 37 36 35 33 32 31 31 30 29 29 29 28 27 25 23 21 21 19 19 19 21 23 24 25 27 28 30 32 33 35 37 38 40 41 42 42 44 45 46 47 47 48 46 43 45 48 49 51 52 53 55 58 59 59 58 58 57 57 56 55 54 50 46 44 40 39 40 38 36 36 35 34 34 32 29 26 24 22 21 21 18 17 16 15
42 41 39 38 37 36 35 33 32 31 31 30 30 29 29 28 27 25 22 21 20 19 18 18 20 22 23 25 26 27 29 30 31 33 35 36 38 39 41 42 43 45 46 47 47 46 46 47 50 52 51 51 52 52 53 55 58 59 58 58 56 56 57 57 56 55 51 47 42 39 38 37 37 36 33 33 32 31 31 27 24 24 23 23 21 19 19 17
42 41 40 38 37 36 35 34 32 32 31 31 30 29 29 28 26 24 22 20 19 18 18 18 19 21 22 24 25 26 28 29 30 32 33 35 36 38 39 41 42 44 45 47 46 46 49 51 52 53 53 52 52 52 52 54 57 56 56 59 58 57 59 59 58 57 55 51 47 44 40 39 40 39 36 34 32 32 34 30 25 25 25 26 25 23 21 20
42 41 40 38 37 35 34 34 33 32 31 31 30 29 29 28 25 23 22 20 19 18 18 18 19 20 21 22 24 25 27 28 30 31 33 34 35 37 38 39 41 42 44 46 46 48 51 52 51 52 53 52 53 54 54 54 53 51 56 61 61 59 60 61 60 59 56 53 51 50 47 44 42 41 40 38 34 35 36 31 27 26 28 28 27 25 24 22
42 40 39 38 36 35 34 33 33 32 31 30 30 29 28 27 24 22 21 20 19 18 17 18 18 19 20 22 23 25 26 27 29 30 32 34 35 36 37 38 40 40 42 44 45 47 49 50 50 52 53 53 55 55 53 50 47 49 57 61 61 62 62 61 62 61 58 55 54 52 49 47 45 42 41 39 37 37 36 32 29 29 29 30 29 28 26 24
40 39 38 37 36 35 34 33 32 31 31 30 29 28 27 26 23 21 21 20 19 18 17 17 18 18 19 20 22 24 25 26 28 30 32 34 35 36 36 38 39 39 40 42 43 45 47 49 50 51 52 53 54 54 52 51 52 55 60 61 62 65 64 63 63 62 59 57 56 54 49 48 48 45 41 40 39 38 38 35 31 31 31 31 30 30 28 27
39 38 37 36 35 35 34 33 32 31 30 29 29 28 26 24 22 21 20 20 19 18 17 17 17 17 18 19 21 23 24 26 27 29 31 34 35 36 36 37 38 38 39 40 41 42 44 46 48 49 51 52 53 53 53 54 57 60 61 60 62 66 66 65 64 62 61 60 58 54 49 47 46 42 38 37 38 36 37 38 36 34 34 32 31 31 30 29
38 37 36 35 35 35 34 34 32 31 30 29 28 27 25 23 21 20 19 19 19 18 17 17 16 17 18 19 20 22 23 25 26 28 31 33 35 36 37 37 38 38 38 39 39 40 41 43 44 46 48 49 50 52 54 56 58 61 61 58 59 64 67 67 66 64 62 62 60 54 50 49 44 37 34 33 35 36 37 39 40 39 38 35 33 32 31 30
38 36 35 35 35 35 34 34 32 30 29 28 27 25 24 22 20 18 18 18 18 17 17 17 16 17 17 18 19 21 22 23 25 27 30 33 35 36 37 37 38 38 38 38 38 39 40 39 40 44 45 46 49 53 55 56 58 60 60 59 59 62 65 67 69 68 64 62 62 58 54 52 47 40 37 34 33 35 36 38 42 44 42 40 36 35 34 32
37 36 35 35 34 34 34 33 32 30 29 28 27 24 23 22 20 18 17 16 16 16 16 16 17 17 17 17 18 19 21 22 24 27 29 32 34 36 37 38 38 38 38 38 39 39 40 38 38 41 43 45 49 52 54 56 58 60 61 61 61 61 63 67 70 71 68 63 61 60 57 55 53 48 43 38 35 34 35 38 41 42 42 42 40 40 38 36
38 36 35 34 34 33 33 33 31 29 28 27 26 23 22 21 20 19 16 15 14 14 14 15 17 17 17 16 17 18 20 21 23 25 28 31 33 35 37 38 38 38 38 39 39 40 40 38 38 40 40 42 46 48 51 54 56 59 61 62 63 61 62 64 67 70 71 67 63 62 59 57 58 56 49 42 38 36 35 36 40 41 41 42 42 42 41 40
37 36 35 34 33 32 32 32 30 29 27 26 24 22 21 21 20 19 17 15 14 13 13 13 15 17 16 16 17 18 19 20 22 24 27 30 32 35 36 37 38 38 38 39 39 40 41 40 40 41 40 41 43 45 48 51 54 57 60 62 64 64 63 64 66 69 72 72 68 64 61 58 59 60 55 48 42 38 36 37 41 40 36 36 37 37 40 41
36 35 34 33 32 31 31 30 30 28 26 25 23 21 21 21 21 20 18 17 15 14 14 13 14 15 15 15 17 18 18 19 21 23 25 29 31 34 35 37 38 38 38 39 39 40 41 42 43 43 43 42 43 45 47 49 52 55 58 62 64 65 66 67 68 70 73 74 71 67 64 61 59 59 58 54 44 38 38 39 40 35 30 30 30 30 33 37
36 33 33 33 31 29 30 29 28 27 25 25 22 20 22 22 20 21 20 18 17 16 16 15 14 15 14 14 15 16 18 20 21 21 24 27 30 33 35 36 37 37 38 38 38 39 40 41 43 44 45 44 44 45 47 48 51 53 57 63 65 66 69 71 71 71 73 75 74 71 67 64 61 58 59 57 46 39 40 40 37 31 25 26 31 31 30 31
36 32 32 33 29 28 29 28 27 26 25 25 22 20 23 23 21 21 22 20 19 19 18 18 17 16 16 15 15 15 17 19 19 20 23 25 28 31 34 36 36 37 37 37 37 38 39 40 42 43 44 45 44 44 47 49 51 54 57 62 64 68 72 74 74 72 73 75 76 74 71 68 64 59 59 57 48 45 47 42 35 29 22 22 29 33 31 31
36 32 32 33 30 28 29 28 28 27 26 26 24 22 24 25 23 23 24 23 22 22 22 21 21 20 18 18 17 16 16 17 18 19 21 23 26 30 33 34 35 35 35 35 36 37 38 39 40 41 42 43 44 44 46 48 52 57 62 64 66 70 73 75 74 74 74 76 78 79 76 73 68 63 60 56 49 51 56 50 39 32 27 25 27 29 31 35
38 34 34 35 32 30 31 30 30 30 30 29 27 26 26 28 27 26 27 27 26 26 26 26 26 23 22 23 21 18 18 17 17 19 20 22 25 28 31 32 33 34 33 33 33 35 37 37 38 39 41 42 43 43 44 47 51 57 64 68 70 72 74 75 76 77 77 77 79 80 78 77 73 68 65 60 51 49 53 56 50 42 37 35 33 33 35 40
39 36 34 36 36 34 33 33 32 32 33 32 31 30 30 31 31 30 30 31 30 29 29 29 29 27 26 27 24 22 21 19 17 18 19 20 23 26 29 30 31 32 32 31 31 32 35 36 37 37 38 39 40 41 42 45 49 56 63 70 75 76 75 76 78 79 78 77 78 79 79 79 74 71 71 67 58 48 45 53 58 52 46 45 46 47 47 45
41 38 34 36 37 35 34 33 32 32 32 31 31 31 31 32 33 32 32 32 32 32 31 31 30 29 29 29 28 26 25 22 20 18 18 19 22 25 27 29 29 30 30 30 30 31 33 35 35 35 36 36 37 37 39 42 46 54 62 70 78 80 79 78 79 79 80 80 80 78 79 80 76 75 78 75 67 53 42 44 53 56 54 53 55 58 59 55
41 38 34 35 36 34 32 31 31 31 31 30 31 30 29 30 31 31 31 32 32 32 31 30 30 30 29 29 29 28 27 26 23 21 20 19 21 23 26 27 27 28 28 28 28 29 31 32 32 32 33 33 34 34 35 38 41 49 59 68 77 83 83 82 81 81 82 83 83 80 79 82 81 79 81 81 77 65 44 34 41 51 56 57 60 63 63 63
41 38 35 34 34 33 32 31 31 31 30 31 31 31 29 30 30 29 30 30 29 29 29 28 28 29 28 28 29 28 28 28 26 24 23 21 20 22 24 25 25 26 26 26 26 26 28 29 29 29 30 30 31 32 32 34 37 44 55 65 74 82 87 87 84 83 84 85 85 82 80 83 85 83 82 81 80 76 57 37 37 47 53 54 58 65 67 65
40 37 35 33 32 31 32 32 31 32 32 32 32 31 31 31 30 29 28 27 26 26 27 26 25 26 26 25 26 26 27 28 28 27 26 24 22 22 24 24 23 23 24 24 24 24 26 27 26 27 28 27 28 28 29 30 33 40 50 60 71 80 88 91 87 85 85 85 85 85 83 84 85 84 85 82 79 78 69 54 47 49 52 52 52 58 67 70
39 37 35 35 34 32 33 34 34 34 34 33 32 32 32 31 31 29 27 27 26 25 25 25 25 25 25 24 24 24 25 27 28 28 28 28 25 23 24 24 23 23 23 23 23 23 24 25 25 25 27 27 26 26 25 26 29 37 46 56 66 76 85 91 90 88 87 84 84 84 81 84 87 86 87 87 83 81 75 68 60 49 47 52 53 53 59 67
38 38 37 38 38 36 36 37 36 35 35 33 32 32 32 31 31 29 27 28 28 26 26 26 25 26 25 24 23 24 24 24 25 26 28 30 28 26 25 25 24 23 24 23 23 23 23 23 24 24 25 26 25 25 23 22 25 34 43 50 59 70 80 87 89 90 88 84 83 84 81 83 88 89 88 88 89 88 84 80 72 55 43 44 51 56 56 58
37 37 38 39 40 39 38 38 36 35 35 35 34 33 32 32 32 30 29 29 28 27 27 26 26 27 27 24 24 24 24 23 23 24 25 28 29 28 27 26 25 25 24 24 23 23 22 22 22 22 23 24 24 24 22 20 21 30 38 44 51 61 72 82 85 87 89 86 82 84 86 88 89 90 90 89 89 90 91 88 84 76 61 47 46 55 58 57
36 36 36 38 39 38 37 36 35 35 35 35 34 33 33 33 32 31 30 28 28 28 27 26 27 28 27 26 26 25 24 22 23 24 24 26 27 28 29 28 26 26 25 24 23 23 22 22 21 20 20 21 22 22 20 18 19 26 33 39 44 50 61 73 80 81 84 85 84 84 86 90 91 90 89 89 89 91 91 90 90 91 85 73 62 57 56 61
Wind_Direction
297 298 298 298 297 295 294 293 290 287 281 276 270 264 260 257 255 252 250 248 244 239 235 232 230 228 225 223 221 218 217 217 217 217 217 216 215 214 214 213 212 211 211 211 212 211 208 203 199 198 198 197 201 214 229 241 237 222 226 232 236 251 304 302 299 325 345 358 3 357 8 11 8 8 9 8 6 8 11 13 14 15 18 19 19 19 19 23
298 299 300 299 298 296 294 292 290 288 285 280 275 270 264 258 255 253 250 248 246 243 238 234 232 230 227 225 222 220 219 218 218 218 218 217 216 216 215 214 213 212 211 211 211 212 210 205 202 199 199 199 205 214 224 238 244 240 236 237 241 270 300 287 285 298 345 358 7 351 358 7 5 7 9 9 6 7 10 13 14 15 18 19 19 20 19 22
300 300 300 299 298 296 294 291 289 287 285 281 278 273 268 262 257 253 250 248 246 244 241 237 233 231 229 227 224 222 220 219 219 219 219 218 217 217 216 215 214 212 212 211 211 212 211 207 204 202 201 203 207 214 222 232 241 243 235 234 233 196 270 270 266 294 344 347 9 353 351 360 2 7 9 10 7 7 9 12 14 15 17 19 19 20 20 22
301 302 301 300 298 297 294 291 289 286 283 281 277 274 270 265 260 254 251 248 246 244 242 239 235 232 229 228 225 223 221 220 220 220 219 219 218 218 217 216 215 213 213 212 211 211 212 210 206 205 204 205 208 212 218 223 232 238 228 227 233 208 214 285 263 290 327 319 357 355 349 352 357 6 9 11 9 7 9 12 14 15 17 18 20 20 20 21
304 304 304 302 300 298 295 293 290 287 283 280 277 274 270 266 262 257 252 248 245 243 242 240 238 234 230 228 226 224 222 221 220 220 220 220 219 218 218 217 216 214 214 212 211 211 212 211 208 207 207 208 208 209 215 220 226 236 222 214 229 225 236 288 300 287 304 299 326 347 345 347 353 3 11 12 9 7 8 12 14 15 16 17 20 21 21 21
307 308 307 305 303 300 298 295 292 288 284 280 277 273 270 266 262 258 254 249 245 243 241 240 239 237 233 229 226 225 223 221 220 220 220 219 219 219 218 218 217 215 214 213 212 211 211 212 210 208 209 211 210 208 213 220 225 233 225 216 229 237 240 256 284 277 265 276 296 327 338 345 350 356 9 12 10 8 8 11 14 15 16 17 19 21 21 21
310 310 309 307 305 303 300 297 294 290 286 281 276 273 270 266 263 259 255 251 246 242 240 239 238 238 236 231 227 225 223 220 220 220 219 220 219 219 219 218 217 216 215 214 213 212 211 211 211 209 210 212 212 210 213 218 221 226 225 224 234 242 244 242 261 267 251 268 284 304 321 336 348 352 4 12 10 7 6 11 15 16 17 16 17 21 22 21
312 311 310 308 307 304 302 299 296 292 287 282 277 271 268 266 263 259 255 252 248 243 240 238 237 236 236 233 230 227 223 220 221 220 219 220 219 219 220 220 219 217 216 215 214 213 211 211 211 210 211 213 213 212 214 217 220 223 224 228 236 245 253 253 258 262 254 274 282 290 303 316 338 346 357 9 10 6 4 8 16 17 17 17 16 19 23 22
313 312 311 309 308 306 303 300 297 293 289 284 278 272 267 263 261 259 256 252 249 245 241 238 236 234 234 234 232 230 224 220 221 220 219 219 219 219 220 220 220 219 217 216 215 214 213 211 211 210 211 213 213 213 215 217 219 222 224 228 239 251 256 255 254 256 260 274 280 284 292 303 321 335 346 360 6 5 1 4 15 18 17 17 16 18 22 23
313 313 312 310 309 307 305 302 299 295 290 286 280 274 268 262 259 258 256 253 250 247 243 239 236 234 233 232 232 232 226 222 222 220 219 219 219 219 220 220 221 220 218 217 216 215 215 213 212 211 211 212 212 213 216 217 218 221 224 224 231 246 253 253 252 251 253 260 269 277 281 288 308 323 332 346 358 2 360 359 11 18 18 18 17 17 20 23
314 314 313 312 311 309 306 303 300 296 293 288 283 277 270 264 259 256 255 254 251 248 244 241 237 234 233 232 232 232 228 225 224 221 219 219 219 219 219 220 221 221 220 218 216 216 216 215 214 213 212 211 211 213 216 216 216 217 221 223 224 235 246 250 252 249 247 249 251 262 266 270 291 312 320 332 347 356 357 356 4 16 19 19 17 17 19 22
315 315 315 314 313 311 308 304 301 298 295 290 285 279 274 267 261 257 253 252 251 249 246 242 239 236 233 232 232 231 229 227 225 222 220 218 218 218 218 219 221 221 221 219 217 217 216 216 216 215 214 212 210 211 214 216 215 214 219 224 225 232 237 241 248 247 245 245 244 252 259 258 271 294 308 321 336 349 354 350 357 11 19 20 18 17 18 21
315 316 317 316 314 312 310 307 303 300 296 292 287 282 276 270 264 259 255 252 250 249 246 243 240 238 235 233 232 230 229 228 226 224 221 218 217 218 217 218 219 221 221 220 218 217 217 216 216 216 216 214 211 210 213 214 214 214 216 220 222 230 235 235 241 243 239 240 239 246 253 248 254 274 292 309 324 337 347 345 348 3 16 20 19 17 17 20
316 317 318 317 316 314 311 309 306 302 298 294 289 284 278 273 267 261 257 253 250 248 246 244 241 238 236 234 232 230 229 228 227 225 223 220 218 217 217 217 218 219 220 220 219 218 218 217 216 216 216 216 213 212 212 213 214 213 212 213 214 220 232 233 234 237 238 239 236 238 245 243 245 258 271 289 304 318 333 337 338 354 11 19 20 18 17 19
316 317 318 317 316 315 313 311 308 305 301 297 292 287 281 275 270 264 259 254 251 248 246 244 242 239 237 236 233 231 229 228 227 226 225 223 220 217 217 217 217 218 219 220 219 218 218 217 217 216 216 216 215 214 213 213 214 215 212 211 210 212 225 232 232 233 235 237 236 236 242 245 245 251 260 272 284 298 311 322 326 341 5 19 20 19 19 19
316 317 318 317 317 316 314 312 310 307 304 299 295 290 285 278 272 267 261 256 252 248 246 244 242 240 238 236 234 232 230 229 228 227 226 224 222 220 218 217 217 218 219 219 218 217 217 218 217 216 216 216 216 215 214 213 215 216 215 213 212 211 218 229 233 233 233 235 237 238 241 244 247 252 261 268 272 278 290 304 313 324 353 16 19 18 19 20
316 317 317 317 317 316 315 314 311 308 305 302 298 293 288 282 276 270 264 259 254 249 246 244 242 240 238 237 235 233 231 229 228 227 227 225 224 222 219 218 217 218 219 219 218 217 217 218 217 217 216 216 216 215 215 214 214 216 216 215 215 214 215 223 230 234 235 236 238 238 239 241 245 251 260 267 266 265 273 287 298 304 334 8 17 16 17 20
315 316 317 317 317 317 316 315 313 310 308 304 300 296 292 287 281 275 268 262 256 251 247 244 242 240 239 237 235 233 232 230 228 228 227 226 225 224 222 220 218 217 218 219 218 217 216 217 218 217 217 216 216 216 215 215 214 215 216 215 215 216 215 219 226 231 234 238 241 239 237 238 242 248 254 260 261 257 257 268 282 287 310 353 9 12 12 16
314 316 316 317 317 317 317 316 314 312 310 307 303 299 295 290 285 279 273 266 260 254 249 245 241 240 239 237 236 234 232 231 229 228 228 227 226 225 224 222 220 218 217 218 218 217 215 216 217 218 217 217 216 216 215 215 215 215 216 216 216 215 215 219 224 227 233 238 240 235 232 236 242 246 247 251 255 253 249 252 263 271 287 327 350 4 7 9
314 315 316 316 317 317 317 316 315 313 310 308 304 300 297 293 289 284 278 271 264 257 251 246 242 240 238 237 236 235 233 232 231 229 228 227 226 226 225 224 222 220 218 218 218 217 215 214 216 218 218 217 216 216 215 215 215 215 215 215 216 214 214 218 221 224 231 237 236 232 234 239 242 239 236 240 248 249 246 242 247 259 273 298 317 342 357 360
313 314 315 315 316 317 317 316 315 313 311 308 304 301 298 295 292 287 283 276 268 261 255 249 244 240 238 237 236 235 233 232 231 230 229 228 227 226 226 225 224 222 220 218 218 217 216 214 214 216 217 217 216 216 216 215 214 215 214 214 215 214 215 216 216 218 224 228 231 235 236 235 235 234 232 236 241 244 245 239 238 247 260 278 289 301 328 345
312 312 313 314 315 316 316 316 315 313 311 307 304 301 298 296 293 290 286 280 272 265 258 252 247 242 239 236 235 234 233 232 231 231 230 229 228 227 227 226 225 224 222 220 218 218 218 215 214 215 216 217 217 216 216 215 215 216 215 215 214 213 215 216 213 213 218 224 230 234 234 231 232 236 236 236 238 242 245 240 236 240 249 263 272 276 283 310
310 311 312 313 314 315 315 315 314 312 311 308 304 301 298 296 294 291 287 282 276 268 261 254 249 244 240 237 235 233 232 232 231 231 230 229 229 228 227 227 226 225 224 222 220 219 219 217 216 216 216 217 218 217 216 215 216 216 216 215 214 212 213 215 214 210 212 217 220 221 224 228 231 234 234 234 237 243 246 240 235 238 242 251 257 259 266 273
309 310 311 312 313 313 314 314 313 312 310 307 304 302 300 297 295 292 288 283 277 270 263 256 250 246 242 238 235 233 232 231 230 230 230 230 230 229 228 227 227 226 225 224 222 222 221 218 218 216 214 218 219 217 216 215 215 216 216 215 213 211 211 213 214 214 212 215 217 217 218 223 224 224 229 233 234 239 241 235 233 239 239 242 247 249 255 260
307 308 309 310 311 312 312 312 311 310 309 306 304 302 300 298 296 293 289 284 277 271 264 257 252 247 243 239 236 233 232 231 230 230 230 230 230 229 229 228 228 227 226 225 224 224 222 218 217 215 213 218 219 216 215 214 214 215 215 215 213 211 211 212 214 216 217 219 222 222 221 224 226 226 233 236 231 232 235 231 231 238 239 238 240 243 247 252
306 307 308 309 310 310 311 311 310 309 307 305 303 302 301 299 297 294 290 284 277 270 263 256 252 248 243 240 236 233 232 230 229 229 229 229 230 230 229 229 229 228 227 226 225 224 223 218 218 216 214 217 218 215 215 214 213 214 215 215 215 213 212 214 215 217 219 220 223 224 224 227 230 233 236 233 228 230 232 232 232 236 239 238 236 238 243 245
304 305 306 308 308 309 309 309 308 307 306 304 303 302 301 300 298 295 291 285 277 270 262 255 250 247 244 240 237 233 231 230 229 228 228 228 228 229 229 229 229 229 228 228 226 225 223 221 221 220 217 218 218 216 215 214 213 213 213 214 214 214 213 214 216 217 219 220 221 224 226 225 225 228 228 226 227 229 229 230 233 233 236 238 235 235 239 241
303 304 305 306 306 307 307 307 307 306 304 303 302 301 300 299 299 296 291 286 278 270 262 255 249 246 243 240 238 234 232 230 229 228 227 226 227 227 228 228 228 229 229 228 227 226 224 222 223 222 220 219 220 218 217 217 215 213 213 213 213 214 214 214 215 216 218 219 216 217 220 219 218 220 221 224 229 231 231 230 231 232 234 236 235 232 235 238
302 303 303 304 305 305 305 305 305 304 303 302 301 301 300 300 299 296 291 286 280 271 262 256 249 245 242 240 238 235 233 230 228 227 226 225 225 225 226 227 227 228 229 228 227 226 225 223 223 223 221 219 220 219 217 218 216 212 212 212 211 212 213 213 214 214 217 217 216 217 218 218 219 222 225 229 232 232 234 232 231 233 233 233 234 231 232 235
300 301 302 303 303 303 303 303 303 302 301 300 300 300 300 300 298 294 291 287 280 272 264 259 253 247 243 240 238 236 233 231 229 227 225 224 223 223 224 225 226 226 228 228 227 227 227 225 225 224 223 220 221 220 218 218 217 213 214 213 211 211 211 213 213 213 215 216 218 220 221 224 226 228 231 233 233 232 234 234 232 234 233 231 232 232 231 232
299 300 300 301 301 301 301 301 300 300 299 299 299 299 299 298 296 293 290 287 281 274 266 261 255 250 244 240 238 236 234 231 230 227 225 224 222 222 222 223 224 225 226 227 227 227 228 227 226 226 224 222 222 221 218 218 216 216 218 215 212 211 211 212 212 213 215 216 218 219 221 225 228 229 233 234 234 234 234 233 233 235 233 230 230 231 232 232
298 298 299 299 299 299 298 298 298 298 297 297 297 298 298 296 293 292 290 287 282 275 269 263 258 252 246 241 239 237 235 232 230 228 226 224 222 221 221 221 223 223 224 226 227 227 228 228 227 227 226 224 224 222 218 216 215 216 217 214 213 212 211 211 212 212 213 215 218 219 219 223 227 230 234 237 237 237 234 230 231 235 233 230 230 231 232 233
296 297 297 298 297 297 296 296 296 296 295 295 295 296 295 292 290 290 290 288 282 276 271 266 261 256 248 243 240 239 238 235 231 229 226 224 223 221 220 221 221 222 223 225 226 227 228 229 228 227 228 227 226 224 219 216 216 218 218 214 213 213 211 210 211 210 211 213 216 216 215 219 224 227 229 233 236 237 234 228 225 231 235 232 231 231 232 234
295 295 296 296 296 295 294 294 294 293 293 293 293 294 291 287 285 286 289 288 284 278 272 267 264 259 252 245 241 239 239 237 234 231 227 225 223 221 220 220 220 221 222 223 224 226 227 228 228 227 227 228 227 225 222 219 219 220 220 217 214 215 214 212 211 210 210 212 214 214 212 213 215 214 213 221 229 231 232 230 223 225 233 233 232 232 233 234
293 294 294 294 294 293 292 292 292 291 291 291 291 291 287 282 280 282 285 287 285 280 274 270 266 261 255 248 242 240 239 237 236 232 228 225 223 221 220 220 220 220 221 223 223 225 226 228 229 228 226 226 226 225 223 221 221 222 222 219 216 216 216 214 213 212 210 211 213 214 212 212 209 204 203 211 218 219 222 228 225 223 228 232 234 236 236 236
292 292 292 292 291 290 290 289 289 289 289 288 288 286 281 277 276 276 279 283 284 281 276 271 267 262 257 251 245 241 239 237 235 232 228 226 223 222 221 220 220 220 221 222 222 224 224 225 229 230 228 226 226 225 223 222 221 221 222 221 218 217 216 215 214 214 212 211 213 214 214 213 211 207 205 208 211 211 214 222 227 227 230 234 237 239 238 238
291 290 290 289 288 288 287 287 287 287 286 286 285 281 276 273 271 271 273 276 279 281 279 274 270 265 260 255 250 244 240 238 236 232 229 226 224 223 222 221 220 220 221 222 222 224 224 222 226 231 230 230 229 227 226 224 222 220 221 222 220 218 218 217 216 216 214 213 213 214 214 214 214 212 208 208 211 210 211 221 231 237 240 242 243 241 237 236
290 289 288 288 286 285 285 285 285 285 284 283 282 277 272 269 268 267 267 269 273 277 279 278 276 271 266 261 257 249 242 238 236 233 230 227 224 224 224 222 221 220 221 222 222 224 224 222 223 228 230 231 231 230 227 226 224 222 221 222 221 219 218 217 216 216 215 214 214 214 212 210 213 213 209 210 213 209 210 223 231 232 236 238 237 236 234 234
289 288 287 285 284 284 283 283 283 282 282 280 278 273 269 266 265 265 264 264 267 271 275 278 280 279 274 267 260 255 249 243 237 232 229 227 224 224 225 224 223 222 222 224 224 225 226 224 223 226 227 229 232 232 231 228 227 224 221 221 221 219 218 217 216 215 214 214 213 213 210 208 210 212 210 210 211 203 206 220 225 222 223 225 222 221 226 229
289 288 286 283 282 282 280 280 280 279 278 277 275 270 267 265 263 264 263 263 263 265 270 273 276 278 278 273 267 261 255 248 241 234 230 228 225 224 226 225 224 224 224 225 226 227 228 227 226 226 227 228 230 233 234 232 230 227 223 222 221 219 218 218 217 215 214 213 213 212 210 207 207 208 208 209 206 200 205 214 218 220 222 222 217 214 219 225
288 287 284 281 280 279 278 277 276 276 275 274 273 267 265 265 264 264 264 263 263 264 266 270 272 273 276 277 273 266 260 254 247 240 234 230 227 226 226 226 225 226 227 228 229 230 231 231 230 229 229 230 230 232 234 233 232 229 225 224 222 220 219 219 218 216 214 213 213 212 210 208 206 204 204 206 206 204 207 211 214 217 213 211 214 214 219 227
285 284 281 279 278 276 275 274 273 273 272 271 271 266 265 265 264 264 265 265 265 266 266 268 269 270 273 275 273 271 267 261 253 246 239 233 230 229 228 227 227 228 229 230 232 233 234 235 235 234 233 233 234 235 236 234 232 229 225 223 223 221 221 220 219 217 215 214 213 212 211 209 208 204 199 202 206 207 207 209 213 215 210 208 212 210 213 222
281 279 277 277 276 273 272 271 271 271 270 269 268 266 264 265 264 264 266 267 267 267 268 267 267 268 270 271 271 272 272 266 258 250 243 236 233 233 232 230 229 229 230 232 235 237 239 240 240 240 238 238 238 239 239 238 234 230 226 223 222 222 221 220 219 218 216 215 214 213 211 210 209 205 200 200 206 210 208 208 212 217 217 215 216 212 210 215
279 276 275 275 274 272 271 270 270 270 270 268 267 266 264 264 265 265 266 267 268 268 267 267 266 266 266 267 268 269 269 268 264 256 248 240 236 236 235 233 231 231 231 233 237 240 243 243 244 244 244 244 244 244 245 242 236 231 226 222 221 221 221 219 219 218 217 217 216 214 212 210 209 206 203 203 206 212 212 208 212 219 223 224 225 223 221 220
277 276 275 274 273 272 271 270 269 268 268 269 268 267 265 265 266 266 266 267 267 267 266 266 266 265 264 265 265 265 266 266 265 262 255 246 240 238 238 236 234 233 233 234 237 242 245 247 247 248 249 250 251 252 252 248 241 233 226 221 219 219 219 219 218 218 217 216 216 215 212 211 209 207 206 205 204 210 214 210 211 217 222 227 229 228 229 228
275 275 275 273 272 272 270 268 267 266 267 269 269 268 268 267 267 267 267 266 265 265 265 264 264 263 262 263 263 263 263 263 263 263 260 253 246 243 242 238 236 234 234 235 238 242 246 249 252 254 255 256 258 260 258 254 246 235 227 221 218 217 218 218 217 216 215 216 216 215 213 212 210 208 207 206 205 207 212 215 216 217 219 225 228 229 229 228
272 273 272 270 269 269 268 266 266 267 269 269 269 269 268 266 266 266 266 266 264 263 263 262 263 264 263 262 262 262 262 261 259 259 260 257 251 249 247 244 239 237 236 237 239 244 248 251 255 259 261 263 266 267 265 258 247 236 227 221 217 216 216 217 217 215 214 215 216 215 213 213 212 210 208 207 206 207 210 216 220 221 220 222 226 228 229 227
269 270 269 266 266 267 267 266 267 269 270 270 269 268 267 266 265 264 265 266 263 260 261 262 262 264 264 263 263 262 261 260 258 255 257 257 254 253 252 249 246 242 240 239 240 245 250 254 258 263 266 269 271 273 271 263 249 235 226 221 217 215 215 216 218 216 213 214 215 214 214 214 214 213 211 208 206 206 209 215 221 227 227 222 220 225 228 228
266 266 264 264 264 266 267 267 267 269 270 270 268 266 266 266 264 262 261 262 259 257 259 261 262 263 264 264 265 265 263 261 259 255 254 254 254 254 255 253 250 246 244 242 241 244 250 255 260 265 270 273 276 277 275 266 251 234 225 221 217 214 214 215 217 217 215 213 214 214 215 215 215 215 213 211 208 206 208 213 218 227 235 229 220 218 222 227
262 262 262 264 265 267 267 267 266 267 268 267 264 264 264 265 265 262 258 257 258 258 259 260 261 262 264 265 265 265 264 264 263 258 255 254 252 253 254 254 253 251 247 246 244 244 248 254 260 266 273 277 280 281 278 269 252 234 224 220 217 215 214 215 215 216 216 214 213 212 213 216 217 216 215 213 211 210 209 211 213 216 227 233 227 220 218 221
260 261 261 264 265 266 266 265 264 264 263 262 261 261 263 264 264 263 259 256 256 257 258 259 261 261 263 264 264 264 265 266 267 264 259 255 252 251 253 254 254 253 250 248 247 246 247 251 258 265 273 279 283 284 281 272 253 234 224 220 218 216 215 214 215 215 216 216 214 212 213 215 216 217 216 214 213 212 212 214 214 214 217 221 223 221 219 220
259 260 261 262 264 265 265 264 262 260 258 258 259 261 262 263 262 260 258 256 255 256 258 258 259 260 262 262 262 264 266 267 268 267 263 260 255 251 252 253 253 254 253 251 250 248 246 248 253 260 269 278 284 285 282 274 255 235 224 219 218 216 215 214 214 214 215 216 215 214 215 216 216 216 217 216 215 214 214 216 217 217 219 219 218 217 218 221
Height
10937 10937 10937 10937 10936 10936 10935 10935 10934 10934 10933 10934 10934 10934 10934 10935 10935 10936 10936 10937 10938 10939 10940 10941 10943 10944 10946 10948 10951 10953 10956 10958 10960 10962 10965 10968 10970 10973 10976 10979 10982 10984 10987 10989 10990 10992 10994 10996 10998 10999 11000 11001 11002 11000 10997 10997 10999 11000 11001 11002 11004 11004 11005 11005 11004 11004 11004 11003 11003 11003 11003 11003 11003 11002 11001 11000 10998 10996 10994 10991 10988 10985 10982 10979 10976 10974 10971 10968
10937 10936 10936 10935 10935 10934 10934 10933 10933 10932 10932 10932 10932 10932 10933 10933 10933 10934 10934 10935 10936 10937 10938 10939 10940 10942 10944 10946 10948 10951 10953 10956 10957 10960 10962 10966 10968 10971 10974 10977 10980 10982 10985 10986 10989 10990 10993 10995 10997 10998 10999 10999 10999 10998 10998 10998 10998 11000 11001 11002 11003 11004 11005 11005 11005 11004 11004 11003 11004 11004 11004 11003 11003 11003 11002 11001 11000 10998 10996 10993 10990 10987 10984 10981 10978 10976 10973 10970
10936 10935 10935 10934 10934 10933 10932 10932 10931 10931 10930 10930 10930 10930 10930 10931 10931 10932 10932 10933 10934 10934 10935 10937 10938 10939 10941 10943 10946 10948 10951 10953 10955 10957 10960 10963 10965 10968 10971 10974 10977 10980 10982 10984 10987 10989 10991 10993 10995 10997 10998 10998 10997 10998 10998 10998 10997 10999 11001 11002 11003 11004 11005 11005 11004 11004 11004 11004 11004 11004 11004 11004 11004 11004 11003 11002 11001 10999 10998 10995 10992 10989 10986 10983 10981 10978 10976 10973
10934 10934 10933 10933 10932 10931 10930 10930 10929 10929 10928 10928 10927 10928 10928 10928 10929 10929 10930 10931 10932 10932 10933 10934 10935 10937 10938 10941 10943 10946 10948 10950 10952 10955 10957 10960 10963 10966 10968 10971 10974 10977 10979 10982 10984 10987 10989 10991 10994 10995 10996 10997 10997 10998 10998 10997 10997 10998 11000 11001 11003 11004 11004 11004 11003 11003 11004 11004 11005 11005 11005 11005 11005 11005 11004 11003 11002 11001 10999 10997 10994 10991 10988 10986 10983 10980 10978 10976
10933 10932 10932 10931 10930 10929 10928 10928 10927 10927 10926 10926 10925 10925 10925 10926 10926 10927 10927 10928 10929 10930 10931 10932 10933 10934 10936 10938 10940 10942 10944 10947 10950 10952 10954 10957 10959 10962 10965 10968 10971 10974 10976 10979 10982 10984 10987 10989 10992 10994 10995 10996 10996 10997 10996 10997 10998 10997 10998 11001 11002 11003 11004 11003 11002 11003 11004 11005 11005 11006 11006 11006 11006 11005 11005 11004 11003 11002 11001 10999 10996 10993 10990 10988 10985 10982 10980 10978
10931 10930 10930 10929 10928 10927 10926 10925 10925 10924 10924 10923 10923 10922 10922 10922 10923 10924 10924 10925 10926 10927 10928 10929 10930 10931 10933 10935 10937 10939 10941 10944 10947 10948 10951 10953 10956 10959 10961 10964 10967 10970 10973 10976 10979 10982 10985 10987 10990 10992 10993 10993 10994 10995 10995 10996 10997 10995 10997 11000 11001 11003 11004 11004 11004 11004 11005 11005 11006 11007 11007 11007 11006 11006 11006 11005 11004 11003 11002 11001 10998 10995 10992 10990 10987 10985 10983 10981
10929 10928 10927 10926 10926 10925 10924 10923 10922 10921 10921 10920 10920 10920 10919 10919 10920 10920 10921 10922 10923 10924 10925 10926 10928 10929 10930 10932 10934 10935 10938 10941 10943 10944 10948 10950 10953 10955 10958 10960 10963 10967 10970 10973 10976 10979 10982 10984 10987 10990 10991 10991 10992 10994 10995 10996 10996 10995 10997 10999 11000 11002 11004 11004 11004 11005 11005 11006 11007 11007 11008 11007 11007 11007 11007 11006 11006 11005 11004 11002 11000 10997 10994 10992 10990 10987 10985 10983
10927 10926 10925 10924 10923 10922 10921 10920 10919 10919 10918 10917 10917 10917 10916 10916 10916 10917 10918 10919 10920 10921 10922 10923 10924 10926 10927 10929 10931 10932 10934 10938 10939 10942 10944 10946 10949 10952 10954 10957 10959 10963 10966 10970 10973 10976 10979 10981 10984 10987 10988 10989 10991 10993 10995 10995 10995 10996 10997 10998 11000 11002 11004 11005 11005 11005 11006 11006 11007 11008 11008 11008 11008 11008 11008 11007 11007 11006 11005 11004 11002 11000 10997 10994 10992 10990 10988 10986
10925 10924 10923 10922 10921 10919 10918 10917 10916 10915 10915 10914 10914 10914 10913 10913 10913 10914 10914 10915 10916 10917 10918 10920 10921 10923 10924 10925 10927 10928 10931 10934 10935 10938 10941 10943 10946 10948 10951 10953 10956 10959 10963 10966 10970 10973 10976 10979 10981 10984 10986 10987 10990 10992 10993 10994 10995 10996 10997 11000 11002 11003 11004 11005 11005 11006 11007 11007 11007 11007 11008 11009 11009 11008 11008 11008 11008 11007 11006 11005 11003 11002 10999 10997 10994 10992 10990 10988
10923 10922 10921 10919 10918 10917 10915 10914 10913 10912 10912 10911 10911 10910 10910 10910 10910 10910 10911 10911 10913 10913 10915 10916 10917 10919 10920 10922 10923 10924 10928 10931 10932 10935 10938 10940 10943 10945 10948 10950 10952 10955 10959 10963 10967 10970 10973 10976 10978 10980 10983 10985 10988 10991 10992 10993 10995 10997 10998 11001 11002 11003 11005 11005 11004 11006 11008 11009 11007 11007 11008 11009 11009 11009 11009 11009 11008 11008 11007 11006 11005 11003 11001 10999 10996 10994 10993 10991
10921 10920 10918 10917 10916 10914 10913 10911 10910 10909 10908 10908 10908 10907 10907 10907 10907 10907 10907 10908 10909 10910 10911 10912 10914 10915 10916 10918 10919 10921 10925 10927 10929 10932 10934 10937 10939 10942 10944 10946 10949 10952 10955 10960 10963 10967 10970 10973 10975 10977 10980 10983 10986 10989 10990 10992 10994 10997 10998 10999 11002 11004 11006 11005 11003 11005 11008 11008 11007 11007 11007 11008 11009 11009 11009 11009 11009 11008 11008 11007 11006 11005 11003 11001 10998 10997 10995 10993
10919 10918 10916 10915 10913 10912 10910 10909 10907 10906 10905 10905 10904 10904 10904 10904 10904 10904 10904 10904 10905 10906 10907 10908 10910 10911 10912 10914 10916 10918 10921 10923 10925 10928 10930 10933 10935 10938 10941 10943 10945 10948 10951 10956 10960 10963 10966 10970 10972 10975 10978 10981 10984 10986 10988 10990 10993 10997 10998 10998 11002 11004 11006 11004 11002 11003 11006 11006 11006 11006 11006 11008 11009 11009 11009 11009 11009 11009 11009 11008 11007 11006 11004 11002 11000 10999 10997 10995
10917 10915 10914 10912 10911 10909 10908 10906 10905 10903 10902 10902 10901 10901 10900 10900 10900 10900 10900 10901 10901 10902 10903 10904 10906 10907 10909 10910 10912 10914 10917 10919 10922 10924 10926 10929 10931 10934 10936 10939 10941 10944 10947 10952 10956 10959 10963 10966 10969 10972 10975 10978 10981 10983 10985 10988 10991 10993 10994 10997 10999 11001 11002 11001 11000 11002 11003 11003 11005 11006 11005 11007 11009 11009 11009 11009 11009 11009 11009 11009 11008 11007 11006 11004 11002 11001 10999 10997
10914 10913 10911 10910 10908 10906 10905 10903 10902 10901 10899 10898 10898 10897 10897 10897 10897 10897 10897 10897 10898 10898 10899 10900 10902 10903 10905 10906 10908 10910 10912 10915 10917 10920 10922 10925 10927 10930 10932 10935 10937 10939 10943 10947 10951 10955 10958 10962 10965 10969 10972 10975 10978 10981 10982 10985 10986 10986 10988 10992 10996 10997 10997 10997 10999 11001 11002 11002 11004 11004 11005 11006 11008 11008 11008 11008 11009 11009 11010 11010 11009 11008 11007 11006 11004 11003 11001 10999
10912 10910 10909 10907 10905 10904 10902 10901 10899 10898 10897 10895 10895 10894 10894 10894 10893 10893 10893 10894 10894 10895 10895 10896 10897 10899 10901 10902 10904 10906 10908 10911 10913 10916 10918 10921 10923 10926 10928 10931 10933 10935 10938 10942 10946 10950 10954 10957 10962 10965 10968 10971 10975 10977 10980 10981 10983 10984 10986 10990 10992 10994 10993 10994 10998 11000 11001 11002 11003 11003 11004 11005 11006 11007 11007 11008 11008 11009 11010 11010 11010 11009 11008 11007 11006 11005 11003 11001
10909 10908 10906 10904 10903 10901 10900 10898 10896 10895 10894 10893 10892 10891 10890 10890 10890 10890 10890 10890 10891 10891 10892 10892 10893 10895 10897 10898 10900 10902 10904 10907 10909 10911 10913 10916 10919 10922 10925 10927 10929 10932 10934 10938 10942 10945 10949 10953 10957 10960 10964 10967 10970 10973 10976 10979 10981 10983 10986 10988 10990 10992 10992 10992 10995 10997 11000 11001 11001 11003 11004 11005 11005 11006 11007 11007 11008 11009 11010 11010 11010 11010 11009 11008 11007 11006 11005 11004
10906 10905 10903 10902 10900 10899 10897 10895 10894 10892 10891 10890 10889 10888 10887 10887 10886 10886 10886 10886 10887 10887 10888 10888 10889 10891 10892 10893 10896 10898 10900 10902 10904 10906 10909 10912 10915 10918 10921 10923 10926 10928 10931 10933 10937 10941 10945 10948 10952 10956 10960 10963 10966 10969 10972 10976 10978 10980 10983 10986 10988 10990 10991 10991 10993 10996 10998 10999 11000 11001 11003 11003 11004 11005 11006 11006 11007 11008 11009 11010 11011 11010 11010 11009 11008 11008 11007 11006
10903 10902 10900 10899 10897 10896 10894 10893 10891 10890 10888 10887 10886 10885 10884 10883 10883 10883 10883 10883 10883 10883 10884 10885 10886 10887 10887 10889 10892 10893 10895 10898 10900 10902 10905 10907 10910 10913 10916 10919 10922 10924 10927 10929 10933 10937 10941 10944 10948 10951 10954 10958 10961 10965 10968 10971 10973 10976 10980 10984 10986 10987 10990 10991 10992 10995 10996 10997 10998 10999 11001 11002 11003 11004 11004 11005 11007 11008 11009 11010 11010 11010 11010 11009 11009 11009 11009 11008
10901 10899 10897 10896 10894 10893 10892 10890 10888 10887 10885 10884 10883 10882 10881 10880 10879 10879 10879 10879 10879 10880 10880 10881 10882 10883 10883 10885 10887 10889 10891 10894 10896 10898 10900 10903 10906 10909 10911 10914 10917 10920 10923 10925 10929 10933 10937 10941 10944 10946 10949 10953 10957 10960 10963 10966 10969 10973 10976 10980 10982 10985 10989 10990 10991 10993 10995 10995 10996 10997 10999 11000 11001 11003 11003 11005 11006 11007 11008 11009 11010 11010 11010 11010 11010 11010 11010 11009
10898 10896 10895 10893 10891 10890 10889 10887 10886 10884 10883 10881 10880 10879 10877 10877 10876 10876 10876 10875 10875 10876 10876 10877 10878 10878 10879 10881 10883 10885 10887 10889 10892 10894 10896 10899 10901 10904 10907 10910 10913 10916 10919 10922 10925 10929 10933 10936 10938 10940 10944 10948 10952 10956 10958 10961 10965 10968 10971 10975 10979 10982 10985 10986 10988 10991 10993 10993 10994 10994 10996 10998 10999 11001 11002 11003 11004 11005 11007 11008 11009 11010 11010 11010 11010 11010 11010 11011
10895 10893 10892 10890 10888 10887 10885 10884 10883 10881 10880 10878 10877 10876 10874 10874 10873 10872 10872 10872 10872 10872 10872 10873 10874 10875 10875 10877 10878 10880 10883 10885 10887 10889 10892 10894 10897 10900 10902 10905 10909 10912 10916 10919 10922 10925 10927 10930 10933 10935 10938 10943 10948 10950 10953 10957 10960 10963 10968 10971 10974 10978 10980 10981 10984 10987 10990 10991 10991 10992 10994 10995 10997 10998 11000 11002 11003 11004 11005 11007 11008 11009 11010 11010 11010 11010 11011 11011
10892 10891 10889 10887 10885 10884 10882 10881 10879 10878 10877 10875 10874 10873 10872 10871 10870 10869 10869 10868 10868 10868 10869 10869 10870 10870 10871 10873 10874 10876 10878 10880 10883 10885 10887 10890 10892 10895 10898 10901 10904 10908 10911 10914 10917 10920 10922 10925 10928 10929 10934 10940 10943 10945 10949 10954 10957 10960 10964 10967 10971 10974 10976 10979 10982 10984 10987 10988 10990 10991 10991 10993 10994 10996 10998 10999 11001 11003 11004 11005 11007 11008 11009 11010 11010 11010 11011 11011
10889 10888 10886 10884 10883 10881 10879 10878 10876 10874 10873 10872 10871 10870 10869 10868 10866 10866 10865 10865 10865 10865 10865 10865 10866 10867 10868 10869 10870 10872 10874 10876 10878 10880 10882 10885 10888 10891 10894 10897 10900 10903 10906 10909 10913 10916 10917 10921 10924 10927 10933 10937 10937 10941 10946 10950 10953 10956 10960 10963 10967 10970 10972 10975 10978 10981 10983 10985 10987 10988 10988 10989 10991 10993 10995 10997 11000 11001 11002 11003 11005 11006 11008 11009 11010 11010 11011 11011
10886 10884 10883 10881 10880 10878 10876 10875 10873 10871 10870 10869 10867 10866 10865 10864 10863 10863 10862 10861 10861 10861 10861 10862 10862 10863 10864 10865 10866 10868 10870 10872 10874 10876 10878 10881 10883 10886 10889 10892 10895 10898 10902 10906 10909 10911 10913 10918 10921 10926 10932 10932 10932 10938 10941 10944 10948 10952 10955 10959 10964 10967 10969 10972 10974 10977 10980 10982 10983 10985 10986 10986 10986 10989 10992 10995 10998 10998 11000 11002 11003 11005 11007 11008 11010 11010 11011 11011
10883 10881 10879 10878 10876 10875 10873 10872 10870 10868 10867 10865 10864 10863 10862 10861 10860 10859 10858 10858 10857 10857 10858 10858 10858 10859 10860 10861 10862 10864 10866 10868 10870 10872 10874 10877 10879 10882 10885 10887 10890 10894 10898 10900 10903 10906 10908 10913 10918 10923 10927 10925 10926 10931 10934 10939 10943 10945 10950 10954 10959 10963 10966 10969 10972 10975 10977 10979 10981 10982 10984 10983 10983 10987 10989 10992 10995 10995 10997 11000 11002 11004 11005 11007 11009 11010 11010 11011
10879 10878 10876 10874 10873 10871 10870 10868 10867 10865 10864 10862 10861 10860 10858 10857 10856 10856 10855 10854 10854 10854 10854 10854 10855 10855 10856 10858 10859 10860 10862 10863 10866 10868 10870 10872 10875 10877 10880 10883 10886 10889 10892 10894 10898 10900 10904 10911 10915 10918 10919 10917 10919 10924 10927 10932 10936 10940 10946 10950 10954 10959 10963 10966 10969 10972 10974 10976 10979 10980 10981 10981 10983 10985 10986 10989 10992 10993 10996 10999 11000 11002 11004 11006 11007 11009 11010 11011
10876 10874 10873 10871 10869 10868 10867 10865 10863 10862 10860 10859 10858 10856 10855 10853 10853 10852 10852 10851 10851 10851 10851 10851 10851 10852 10853 10854 10855 10857 10858 10860 10862 10864 10866 10868 10870 10873 10876 10879 10881 10884 10886 10889 10893 10897 10902 10909 10910 10910 10911 10913 10916 10919 10922 10926 10930 10935 10941 10945 10951 10955 10959 10962 10965 10968 10971 10973 10975 10977 10978 10980 10982 10983 10984 10987 10988 10991 10994 10996 10998 11000 11002 11004 11006 11008 11009 11010
10872 10871 10869 10868 10866 10865 10863 10862 10860 10859 10857 10856 10855 10853 10852 10850 10849 10848 10848 10848 10848 10848 10848 10848 10848 10848 10849 10850 10851 10853 10854 10856 10858 10860 10862 10864 10866 10869 10871 10874 10876 10878 10881 10884 10888 10893 10898 10900 10900 10902 10906 10909 10912 10915 10919 10923 10926 10931 10937 10942 10946 10950 10953 10957 10960 10963 10966 10969 10971 10973 10975 10978 10979 10980 10982 10983 10986 10989 10991 10994 10997 10999 11001 11002 11004 11006 11008 11009
10868 10867 10866 10864 10863 10861 10860 10858 10857 10855 10854 10852 10851 10850 10848 10847 10846 10845 10845 10845 10845 10844 10844 10845 10845 10845 10846 10847 10848 10850 10851 10853 10854 10856 10858 10860 10862 10864 10866 10869 10871 10874 10876 10879 10883 10887 10889 10890 10892 10896 10900 10904 10907 10911 10915 10917 10920 10929 10934 10935 10939 10943 10946 10950 10954 10958 10961 10964 10967 10969 10971 10974 10976 10978 10979 10981 10984 10986 10988 10991 10995 10996 10998 11000 11002 11004 11006 11008
10865 10863 10862 10861 10859 10858 10856 10855 10854 10852 10850 10849 10848 10847 10845 10844 10843 10842 10842 10842 10842 10841 10842 10842 10842 10843 10843 10844 10845 10846 10848 10849 10851 10853 10854 10856 10858 10860 10862 10864 10866 10869 10871 10874 10878 10880 10881 10884 10889 10892 10896 10900 10903 10905 10909 10912 10921 10929 10928 10927 10933 10937 10940 10944 10949 10954 10957 10960 10963 10965 10968 10971 10973 10975 10976 10978 10981 10983 10985 10989 10992 10994 10995 10997 10999 11002 11004 11006
10861 10859 10858 10857 10855 10854 10853 10852 10850 10849 10847 10846 10845 10843 10842 10841 10840 10839 10839 10839 10838 10838 10838 10839 10839 10840 10840 10841 10842 10843 10844 10846 10847 10849 10851 10852 10854 10856 10858 10860 10862 10865 10866 10869 10872 10874 10877 10880 10884 10887 10890 10895 10896 10900 10907 10914 10921 10923 10919 10923 10929 10931 10933 10938 10944 10948 10953 10957 10959 10961 10965 10967 10968 10971 10973 10975 10978 10981 10983 10987 10990 10992 10993 10995 10997 11000 11002 11004
10857 10856 10854 10853 10852 10850 10849 10848 10847 10846 10844 10843 10841 10840 10839 10838 10837 10837 10836 10836 10835 10835 10835 10836 10836 10837 10838 10838 10839 10840 10841 10842 10844 10845 10847 10849 10850 10852 10854 10856 10858 10860 10862 10865 10867 10870 10872 10875 10879 10882 10886 10889 10892 10898 10904 10909 10911 10909 10910 10918 10922 10924 10929 10934 10939 10944 10949 10952 10954 10957 10962 10963 10964 10968 10970 10973 10975 10978 10981 10985 10989 10990 10991 10994 10996 10998 11000 11002
10853 10852 10850 10849 10848 10846 10845 10844 10844 10843 10841 10840 10838 10837 10836 10835 10835 10834 10833 10833 10832 10832 10832 10833 10833 10834 10835 10836 10836 10837 10838 10839 10841 10842 10844 10845 10846 10849 10850 10852 10854 10856 10858 10860 10863 10865 10868 10871 10875 10878 10880 10884 10889 10893 10898 10901 10901 10901 10904 10912 10916 10919 10924 10929 10934 10939 10943 10946 10948 10953 10957 10959 10962 10966 10969 10971 10973 10975 10978 10982 10988 10990 10990 10991 10994 10996 10998 11000
10849 10848 10846 10845 10844 10842 10841 10840 10840 10839 10838 10836 10835 10834 10833 10833 10832 10832 10831 10830 10830 10830 10830 10830 10830 10831 10831 10832 10833 10834 10835 10836 10837 10839 10840 10841 10843 10845 10846 10848 10850 10852 10854 10856 10859 10862 10864 10866 10869 10872 10876 10880 10884 10887 10891 10895 10897 10898 10902 10909 10913 10916 10920 10925 10930 10934 10938 10942 10945 10950 10953 10956 10960 10964 10967 10970 10970 10972 10974 10978 10984 10987 10987 10988 10991 10994 10996 10998
10844 10843 10842 10841 10840 10838 10837 10836 10836 10836 10834 10833 10832 10832 10830 10830 10830 10830 10829 10828 10827 10827 10827 10827 10827 10827 10828 10829 10830 10831 10832 10833 10834 10835 10837 10838 10840 10841 10842 10844 10847 10849 10851 10853 10855 10857 10859 10862 10865 10867 10871 10873 10875 10878 10883 10889 10891 10894 10899 10905 10909 10912 10916 10921 10926 10929 10934 10939 10943 10946 10948 10952 10957 10959 10962 10964 10966 10967 10969 10972 10977 10981 10983 10984 10987 10990 10993 10996
10839 10839 10838 10837 10836 10834 10833 10832 10832 10832 10831 10830 10829 10829 10828 10827 10827 10827 10827 10826 10825 10825 10825 10824 10824 10824 10825 10826 10827 10828 10829 10830 10831 10832 10833 10834 10836 10837 10839 10841 10843 10845 10847 10849 10851 10853 10855 10859 10860 10861 10864 10867 10868 10872 10877 10881 10884 10889 10894 10898 10901 10905 10910 10915 10920 10924 10929 10934 10938 10940 10943 10948 10952 10955 10957 10959 10962 10963 10965 10968 10973 10977 10980 10982 10984 10986 10989 10992
10834 10834 10833 10833 10832 10830 10829 10828 10828 10828 10827 10826 10826 10825 10825 10825 10824 10824 10825 10824 10823 10823 10822 10822 10821 10821 10822 10823 10824 10825 10826 10827 10827 10828 10830 10831 10832 10833 10835 10837 10839 10842 10843 10845 10847 10849 10851 10855 10856 10856 10860 10863 10865 10868 10872 10874 10878 10883 10888 10891 10895 10901 10905 10910 10915 10920 10924 10929 10931 10932 10937 10942 10946 10950 10953 10957 10959 10961 10963 10967 10971 10974 10976 10978 10980 10982 10985 10988
10830 10829 10829 10828 10827 10826 10825 10824 10824 10824 10823 10823 10822 10822 10822 10822 10822 10822 10822 10822 10821 10821 10820 10820 10819 10819 10820 10821 10821 10822 10823 10824 10824 10825 10826 10827 10829 10830 10831 10833 10836 10838 10839 10841 10843 10845 10847 10850 10851 10852 10855 10858 10860 10862 10865 10868 10872 10877 10882 10885 10888 10894 10899 10903 10908 10912 10916 10921 10923 10925 10931 10937 10940 10945 10951 10954 10956 10959 10963 10964 10966 10969 10971 10973 10975 10978 10981 10984
10825 10825 10825 10823 10823 10823 10821 10820 10820 10820 10820 10819 10819 10819 10819 10819 10819 10819 10819 10819 10819 10819 10818 10818 10817 10816 10817 10818 10818 10818 10819 10820 10820 10822 10823 10824 10825 10826 10827 10829 10831 10834 10835 10836 10839 10840 10842 10844 10846 10847 10850 10852 10855 10857 10860 10863 10866 10871 10876 10877 10881 10887 10892 10895 10898 10902 10907 10912 10916 10920 10926 10932 10937 10942 10947 10951 10954 10958 10961 10960 10962 10965 10968 10970 10973 10976 10979 10982
10820 10821 10820 10819 10819 10819 10817 10817 10816 10816 10816 10815 10816 10816 10815 10815 10816 10816 10816 10816 10817 10817 10816 10816 10816 10815 10814 10815 10815 10815 10816 10816 10817 10819 10820 10820 10822 10822 10823 10825 10827 10829 10831 10832 10834 10836 10837 10839 10840 10843 10845 10848 10850 10852 10855 10858 10861 10865 10868 10869 10873 10879 10882 10885 10889 10893 10899 10905 10910 10915 10921 10927 10933 10938 10943 10949 10953 10956 10956 10956 10958 10962 10963 10967 10971 10974 10978 10982
10816 10818 10816 10814 10815 10815 10813 10813 10812 10812 10812 10811 10812 10813 10812 10812 10813 10813 10813 10813 10814 10814 10814 10814 10813 10813 10813 10812 10813 10813 10813 10813 10814 10815 10816 10817 10818 10818 10819 10821 10823 10824 10826 10828 10829 10831 10832 10833 10835 10838 10840 10843 10846 10847 10849 10852 10855 10859 10862 10864 10868 10871 10872 10875 10881 10886 10893 10899 10903 10908 10914 10921 10928 10935 10941 10947 10949 10949 10950 10951 10955 10957 10959 10962 10967 10972 10979 10983
10811 10813 10812 10809 10810 10811 10809 10809 10808 10808 10808 10808 10808 10810 10809 10809 10810 10810 10809 10810 10811 10810 10811 10811 10810 10810 10811 10810 10810 10810 10810 10810 10811 10812 10812 10814 10815 10815 10815 10817 10818 10820 10821 10823 10824 10826 10826 10828 10829 10832 10835 10837 10839 10841 10842 10845 10847 10850 10852 10856 10859 10861 10864 10869 10875 10880 10885 10890 10893 10899 10908 10917 10925 10932 10939 10942 10940 10939 10944 10950 10954 10955 10955 10957 10961 10967 10972 10976
10806 10808 10807 10805 10805 10806 10805 10804 10804 10804 10804 10804 10804 10805 10805 10805 10805 10806 10806 10806 10807 10807 10807 10807 10807 10808 10808 10807 10807 10807 10807 10808 10808 10809 10809 10811 10811 10811 10812 10813 10814 10815 10817 10818 10820 10821 10821 10822 10824 10826 10828 10831 10832 10834 10835 10837 10838 10840 10843 10846 10849 10851 10856 10863 10868 10872 10878 10882 10886 10894 10904 10913 10921 10930 10935 10933 10930 10932 10940 10950 10952 10949 10948 10950 10955 10958 10960 10961
10800 10802 10803 10801 10800 10801 10800 10799 10800 10800 10799 10799 10800 10800 10801 10800 10800 10802 10802 10802 10802 10803 10803 10803 10803 10804 10804 10803 10804 10805 10804 10805 10805 10806 10806 10807 10808 10808 10808 10809 10810 10811 10812 10814 10815 10816 10816 10817 10819 10820 10822 10824 10825 10826 10827 10828 10829 10830 10833 10837 10840 10843 10849 10854 10858 10865 10872 10878 10882 10891 10901 10909 10918 10926 10926 10923 10925 10929 10936 10944 10946 10943 10944 10946 10949 10950 10951 10954
10794 10796 10799 10797 10794 10795 10795 10795 10795 10795 10794 10794 10795 10795 10796 10796 10796 10797 10797 10797 10798 10798 10798 10799 10799 10800 10800 10800 10800 10801 10801 10801 10802 10803 10803 10804 10804 10804 10804 10806 10807 10807 10808 10810 10811 10811 10811 10812 10813 10814 10815 10816 10818 10818 10819 10820 10821 10822 10824 10828 10831 10835 10841 10846 10851 10858 10866 10870 10875 10885 10896 10903 10910 10915 10912 10913 10921 10924 10928 10936 10939 10938 10939 10940 10940 10942 10945 10951
10788 10790 10793 10792 10789 10789 10790 10790 10790 10790 10790 10790 10790 10790 10791 10791 10791 10792 10792 10792 10793 10793 10793 10794 10795 10795 10796 10796 10796 10797 10797 10798 10799 10799 10800 10800 10800 10801 10801 10802 10803 10804 10805 10806 10807 10807 10807 10807 10808 10809 10809 10810 10810 10810 10811 10812 10812 10813 10815 10818 10822 10827 10833 10837 10842 10849 10856 10861 10867 10879 10890 10895 10899 10902 10903 10909 10917 10920 10924 10931 10933 10931 10930 10929 10930 10934 10938 10944
10783 10785 10786 10786 10785 10784 10784 10785 10785 10785 10785 10786 10785 10786 10787 10787 10787 10787 10787 10787 10789 10789 10789 10790 10791 10791 10792 10792 10792 10793 10794 10794 10795 10796 10796 10796 10797 10797 10797 10798 10799 10800 10801 10802 10802 10802 10802 10803 10803 10803 10803 10804 10804 10804 10805 10804 10804 10805 10806 10809 10814 10820 10824 10828 10833 10839 10846 10853 10861 10872 10882 10886 10889 10895 10900 10908 10916 10921 10924 10927 10924 10920 10919 10921 10924 10927 10933 10939
10778 10779 10780 10779 10780 10780 10779 10780 10780 10780 10781 10781 10781 10781 10782 10782 10782 10783 10783 10784 10785 10785 10785 10786 10787 10787 10787 10788 10788 10789 10790 10789 10790 10791 10792 10792 10793 10793 10793 10794 10795 10796 10797 10798 10798 10798 10797 10798 10799 10798 10798 10799 10799 10799 10799 10798 10797 10797 10798 10801 10806 10812 10816 10821 10826 10832 10839 10846 10855 10865 10873 10877 10882 10889 10896 10904 10912 10918 10921 10920 10914 10907 10908 10914 10920 10923 10928 10934
10772 10773 10774 10773 10774 10775 10775 10775 10776 10776 10775 10776 10777 10776 10777 10777 10777 10779 10780 10780 10780 10781 10781 10782 10783 10783 10783 10784 10785 10785 10786 10785 10786 10787 10788 10788 10789 10790 10790 10791 10791 10792 10793 10793 10794 10794 10793 10794 10794 10794 10794 10794 10794 10794 10793 10792 10791 10790 10790 10793 10799 10804 10809 10813 10819 10825 10832 10839 10849 10861 10869 10872 10875 10881 10888 10896 10903 10909 10911 10909 10905 10901 10901 10906 10914 10919 10923 10928
10766 10767 10768 10767 10768 10769 10769 10769 10770 10771 10770 10771 10772 10771 10772 10772 10772 10774 10775 10776 10776 10777 10778 10778 10778 10778 10779 10780 10781 10781 10781 10781 10782 10783 10784 10784 10785 10786 10787 10787 10788 10788 10789 10790 10790 10790 10790 10790 10790 10790 10789 10789 10789 10789 10788 10786 10785 10784 10785 10788 10792 10798 10802 10807 10813 10820 10827 10835 10844 10855 10862 10863 10865 10871 10879 10886 10892 10898 10900 10898 10898 10897 10896 10898 10904 10912 10918 10923
10759 10761 10762 10761 10762 10763 10763 10764 10765 10766 10765 10765 10766 10767 10767 10767 10768 10769 10770 10771 10772 10773 10773 10774 10775 10774 10775 10776 10776 10777 10778 10778 10778 10779 10780 10780 10781 10782 10783 10783 10784 10784 10785 10786 10786 10786 10787 10787 10786 10786 10785 10785 10784 10784 10783 10782 10781 10779 10780 10783 10787 10791 10795 10800 10807 10814 10822 10831 10839 10845 10848 10851 10855 10861 10868 10877 10883 10889 10892 10892 10891 10892 10891 10890 10895 10904 10912 10917
10753 10754 10755 10755 10755 10756 10757 10758 10760 10760 10760 10760 10761 10762 10762 10762 10763 10764 10765 10767 10768 10769 10770 10770 10770 10770 10771 10772 10772 10773 10774 10775 10775 10775 10776 10776 10777 10779 10779 10779 10780 10781 10781 10782 10783 10783 10783 10783 10783 10783 10782 10781 10781 10780 10779 10778 10777 10775 10776 10779 10782 10786 10790 10795 10801 10810 10819 10826 10830 10834 10838 10842 10847 10854 10862 10870 10877 10881 10885 10886 10885 10885 10886 10886 10889 10897 10905 10911